Location: Napoli
(40.8639°N, 14.2562°E)
Time: 15:30:44
(UTC+02:00)

ISS - Visible Passes

Search period start: 22 October 2019 00:00
Search period end: 31 October 2019 23:00
Orbit: 411 x 421 km, 51.6° (Epoch: 22 October)

Date Brightness Start Highest point End Pass type
(mag) Time Alt. Az. Time Alt. Az. Time Alt. Az.
22 Oct -0.9 06:49:09 10° S 06:51:40 20° SE 06:54:11 10° E visible
23 Oct -0.5 06:02:10 10° SSE 06:03:18 11° SE 06:04:25 10° ESE visible
24 Oct -3.1 06:47:43 10° SW 06:51:00 56° SE 06:54:19 10° ENE visible
25 Oct -2.0 05:59:32 10° SSW 06:02:30 31° SE 06:05:32 10° ENE visible
26 Oct -1.3 05:13:48 18° SE 05:14:03 18° SE 05:16:26 10° E visible
26 Oct -3.5 06:47:13 10° WSW 06:50:31 52° NNW 06:53:49 10° NE visible
27 Oct -3.9 05:00:47 40° SW 05:01:52 89° NW 05:05:15 10° NE visible
28 Oct -1.8 04:14:38 30° E 04:14:38 30° E 04:16:34 10° ENE visible
28 Oct -2.4 05:47:33 11° W 05:50:11 25° NNW 05:53:04 10° NE visible
29 Oct -3.0 05:01:15 36° NW 05:01:24 36° NNW 05:04:34 10° NE visible
30 Oct -1.3 04:14:50 20° NE 04:14:50 20° NE 04:16:01 10° NE visible
30 Oct -1.7 05:47:45 10° NW 05:49:58 17° NNW 05:52:14 10° NNE visible
31 Oct -2.0 05:01:14 20° NNW 05:01:14 20° NNW 05:03:42 10° NNE visible
